Regional Weather Roundup
Issued by NWS

Home | Current Version | Previous Version | Graphics & Text | Print | Product List | Glossary On
Versions: 1 2 3 4 5 6 7 8 9 10 11 12 13 14 15 16 17 18 19 20 21 22 23 24 25 26 27
000
ASUS45 KBOU 160407
RWRCO

WEATHER ROUNDUP FOR COLORADO
NATIONAL WEATHER SERVICE DENVER/BOULDER CO
900 PM MST SUN JAN 15 2017

NOTE: "FAIR" INDICATES FEW OR NO CLOUDS BELOW 12000 FEET WITH NO
SIGNIFICANT WEATHER AND/OR OBSTRUCTIONS TO VISIBILITY.

COZ001>005-013-030-031-160500-
...NORTHWEST COLORADO...

CITY           SKY/WX    TMP DP  RH WIND       PRES   REMARKS
CRAIG          CLOUDY    21  18  88 W6        30.02R FOG     WCI  13
HAYDEN         CLOUDY    19  18  93 SW3       29.99S VSB 1
MEEKER         CLOUDY    26  22  84 CALM      29.99S
MOUNT WERNER   NOT AVBL
STEAMBOAT SPGS CLOUDY    22  20  95 CALM      29.97S
WALDEN           N/A    N/A N/A N/A CALM      29.98R
$$

COZ006>008-011-160500-
...WEST CENTRAL VALLEYS...

CITY           SKY/WX    TMP DP  RH WIND       PRES   REMARKS
GRAND JUNCTION CLOUDY    36  31  82 CALM      29.94S
MONTROSE       CLOUDY    36  34  92 CALM      29.95S
EAGLE          MOCLDY    28  25  86 CALM      29.96S
RIFLE          CLOUDY    32  26  78 W9        29.97R WCI  24
DELTA          CLOUDY    40  36  85 CALM      29.94F
NUCLA          CLOUDY    36  32  87 W3        29.96S
$$

COZ017>023-064>068-160500-
...SOUTHWEST COLORADO...

CITY           SKY/WX    TMP DP  RH WIND       PRES   REMARKS
DURANGO        CLOUDY    37  32  82 SW10      29.84R
CORTEZ         CLOUDY    37  34  89 CALM      29.90S
PAGOSA SPRINGS LGT SNOW  35  35 100 CALM      29.86S
TELLURIDE      SNOW      30  30 100 W6        29.93S VSB 1/4 WCI  24
WOLF CREEK PAS CLOUDY    23  23 100 CALM      29.95F
$$

COZ009-010-012-014-032>034-037-058>063-160500-
...CENTRAL COLORADO...

CITY           SKY/WX    TMP DP  RH WIND       PRES   REMARKS
ASPEN          CLOUDY    29  27  92 NW5       29.91S WCI  24
BUENA VISTA    CLOUDY    30  28  92 CALM      29.91F
COPPER MTN     LGT SNOW  28  23  80 CALM      29.96R VSB 1
BERTHOUD PASS  NOT AVBL
COTTONWOOD PAS LGT SNOW  32  30  93 CALM      29.92F
GUNNISON       MIX PCPN  23  19  85 CALM      29.92S
KREMMLING      CLOUDY    25  21  86 CALM      29.97S FOG
LEADVILLE      LGT SNOW  25  23  92 CALM      29.91R FOG
MONARCH PASS   CLOUDY    23  21  93 E10       30.02S WCI  12
SALIDA         CLOUDY    33  32  95 CALM      29.98S
SUNLIGHT       CLOUDY    23  21  93 NE5       29.98S FOG     WCI  17
WILKERSON PASS CLOUDY    25  23  93 NE7       29.96F FOG     WCI  17
$$

COZ069>075-160500-
...SAN LUIS VALLEY/SANGRE DE CRISTO MOUNTAINS...

CITY           SKY/WX    TMP DP  RH WIND       PRES   REMARKS
ALAMOSA        CLOUDY    32  32 100 SW3       29.84F
LA VETA PASS   FOG       23  21  93 SW5       29.89S VSB 1/2 WCI  17
SAGUACHE       CLOUDY    32  30  93 W5        29.85F WCI  27
$$

COZ035-036-038>040-160500-
...NORTHERN COLORADO FRONT RANGE...

CITY           SKY/WX    TMP DP  RH WIND       PRES   REMARKS
DENVER INTL AP FLURRIES  32  25  75 NW6       29.95S WCI  26
DMNS CITY PARK   N/A     33  28  81 NW5       29.96S WCI  29
AURORA         FLURRIES  31  30  96 NW7       29.95F WCI  24
FRONT RANGE AP CLOUDY    32  28  86 NW6       29.95F WCI  26
ERIE MUNI ARPT CLOUDY    33  30  90 CALM      29.97S
BOULDER MUN AP FLURRIES  34  32  93 CALM      29.97R
CENTENNIAL     LGT SNOW  31  28  89 NW8       29.94F FOG     WCI  23
BROOMFIELD     FLURRIES  32  30  93 NW5       29.96S WCI  27
FORT COLLINS   CLOUDY    34  25  69 NE3       29.98R
LONGMONT       CLOUDY    35  31  85 CALM      29.99S
$$

COZ041-046-047-076>085-087-088-160500-
...PIKES PEAK/PALMER DIVIDE AND SOUTHERN FOOTHILLS...

CITY           SKY/WX    TMP DP  RH WIND       PRES   REMARKS
COLO. SPRINGS  CLOUDY    32  28  85 NE3       29.91F
A. F. ACADEMY  CLOUDY    31  27  86 N15       29.89F WCI  20
SCHRIEVER AFB  NOT AVBL
ELLICOTT       CLOUDY   N/A N/A N/A N3        29.90F
FALCON         CLOUDY    31  28  86 N16G24    29.90S WCI  20
FORT CARSON    SNOW      32  30  93 VRB3      29.92F VSB 1/4
LIMON          CLOUDY    28  27  96 NW8       29.93F WCI  20
MONUMENT HILL  LGT SNOW  27  27 100 NW6       29.93S WCI  20
TRINIDAD       SNOW      30  28  92 CALM      29.92S VSB 1/2
$$

COZ042>045-048>051-090-091-160500-
...NORTHEAST COLORADO...

CITY           SKY/WX    TMP DP  RH WIND       PRES   REMARKS
GREELEY ARPT   CLOUDY    32  28  85 W3        29.98S
AKRON          CLOUDY    28  26  92 N3        29.95S FOG
BURLINGTON     FOG       31  29  92 NE7       29.94F VSB 1/4 WCI  24
WRAY           NOT AVBL
STERLING       CLOUDY    30  30 100 N5        29.98S FOG     WCI  25
HOLYOKE        MIX PCPN  34  32  93 CALM      29.99S
FORT MORGAN    CLOUDY    29  27  92 CALM      29.98S
$$

COZ086-089-092>099-160500-
...SOUTHEAST COLORADO...

CITY           SKY/WX    TMP DP  RH WIND       PRES   REMARKS
PUEBLO         CLOUDY    33  32  96 SE5       29.93S FOG     WCI  29
LA JUNTA       CLOUDY    33  31  92 CALM      29.95R FOG
LAMAR          CLOUDY    32  29  88 CALM      29.93F FOG
SPRINGFIELD      N/A     30  29  96 N10       29.90F WCI  21
$$




USA.gov is the U.S. government's official web portal to all federal, state and local government web resources and services.